Regional Weather Roundup
Issued by NWS

Home | Current Version | Previous Version | Text Only | Print | Product List | Glossary Off
Versions: 1 2 3 4 5 6 7 8 9 10 11 12 13 14 15 16 17 18 19 20 21 22 23 24 25 26 27 28 29 30 31 32 33 34 35 36 37 38 39 40 41 42 43 44 45 46 47 48 49 50

000
ASUS43 KLSX 230610
RWRMO

WEATHER SUMMARY FOR MISSOURI
NATIONAL WEATHER SERVICE SPRINGFIELD MO
1200 AM CST THU FEB 23 2017

NOTE: "FAIR" INDICATES FEW OR NO CLOUDS BELOW 12,000 FEET WITH NO
       SIGNIFICANT WEATHER AND/OR OBSTRUCTIONS TO VISIBILITY.
       CURRENT SKY AND/OR WEATHER CONDITIONS ARE NOT AVAILABLE FOR
       CHILLICOTHE AND FARMINGTON.

MOZ001>031-035>038-043-044-053-054-230700-
...NORTHERN AND WESTERN MISSOURI...

CITY           SKY/WX    TMP DP  RH WIND       PRES   REMARKS
KANSAS CTY INT CLEAR     52  38  58 NE10      29.72R
6HR MIN TEMP:  51; 6HR MAX TEMP:  70;

KANSAS C DTWN  CLEAR     49  37  63 NW3       29.71S
6HR MIN TEMP:  48; 6HR MAX TEMP:  75;

LEE`S SUMMIT   CLEAR     59  37  44 NE7       29.71S
6HR MIN TEMP:  58; 6HR MAX TEMP:  73;

ST JOSEPH      CLEAR     49  39  68 N8        29.75R
6HR MIN TEMP:  49; 6HR MAX TEMP:  66;

CHILLICOTHE      N/A     55  40  56 N7        29.73S
6HR MIN TEMP:  51; 6HR MAX TEMP:  71;

KIRKSVILLE     CLEAR     49  39  68 N5        29.73S
6HR MIN TEMP:  45; 6HR MAX TEMP:  67;


$$
MOZ066>068-077>081-088>096-101>105-230700-
...SOUTHWEST MISSOURI...

CITY           SKY/WX    TMP DP  RH WIND       PRES   REMARKS
SPRINGFIELD    CLEAR     57  54  89 S12       29.73S
6HR MIN TEMP:  56; 6HR MAX TEMP:  67;

JOPLIN         PTCLDY    59  51  75 S8        29.69F
6HR MIN TEMP:  56; 6HR MAX TEMP:  70;

BRANSON        CLEAR     55  55 100 CALM      29.76F

$$
MOZ032>034-039>042-045>050-055>058-069>072-230700-
...CENTRAL MISSOURI...

CITY           SKY/WX    TMP DP  RH WIND       PRES   REMARKS
COLUMBIA       CLEAR     55  52  89 S7        29.71S
6HR MIN TEMP:  55; 6HR MAX TEMP:  62;

JEFFERSON CITY CLEAR     53  50  89 E5        29.71S
6HR MIN TEMP:  53; 6HR MAX TEMP:  67;

ROLLA          CLEAR     55  53  93 S13       29.72F
6HR MIN TEMP:  55; 6HR MAX TEMP:  64;

SEDALIA        CLEAR     60  53  77 SW8       29.71S
6HR MIN TEMP:  59; 6HR MAX TEMP:  71;

WHITEMAN AFB   PTCLDY    54  44  68 SW5       29.69R
WARRENSBURG    CLEAR     57  39  51 N7        29.69R
OSAGE BEACH    CLEAR     57  54  89 S7        29.73S

$$
MOZ051-052-059>065-230700-
...EAST CENTRAL MISSOURI...

CITY           SKY/WX    TMP DP  RH WIND       PRES   REMARKS
ST LOUIS INTL  MOCLDY    61  53  75 SW10      29.73S
6HR MIN TEMP:  61; 6HR MAX TEMP:  70;

SPIRIT OF STL  PTCLDY    59  54  83 SW7       29.72S
6HR MIN TEMP:  56; 6HR MAX TEMP:  67;

ST CHARLES     PTCLDY    50  50 100 CALM      29.72S
6HR MIN TEMP:  49; 6HR MAX TEMP:  60;


$$
MOZ072>076-082>087-097>100-106>115-230700-
...SOUTH CENTRAL AND SOUTHEAST MISSOURI...

CITY           SKY/WX    TMP DP  RH WIND       PRES   REMARKS
CAPE GIRARDEAU MOCLDY    60  55  83 S10       29.78S
6HR MIN TEMP:  56; 6HR MAX TEMP:  63;

FARMINGTON     PTCLDY    58  55  90 SW10      29.76F
6HR MIN TEMP:  55; 6HR MAX TEMP:  64;

POPLAR BLUFF   CLEAR     54  53  97 CALM      29.79S FOG
6HR MIN TEMP:  53; 6HR MAX TEMP:  65;

WEST PLAINS    CLEAR     53  51  93 SW5       29.79F
6HR MIN TEMP:  53; 6HR MAX TEMP:  61;


$$




USA.gov is the U.S. government's official web portal to all federal, state and local government web resources and services.